Карточка аэропорта USRR

Внимание!
Информация на этой странице в стадии наполнения.
Если вы не увидели какой-то информации, или заметили неточность - пожалуйста сообщите нам!
Спасибо!
Команда RU-STAFF
Название аэропортаСургут
Название аэропорта (англ.)Surgut
Превышение196 ft. (59.7 m.)
Координаты61°20.502', 73°24.168'
Высота перехода700m
Эшелон переходаQFE>=742mm:FL040; QFE<=742mm:FL050
Коды ответчика5570-5577
Зона ОрВДТюмень РПИ (USTV)
Данные METARUSRR 191230Z 07005MPS CAVOK 25/10 Q1000 R07/CLRD60 NOSIG RMK QFE745
Проноз погоды (TAF)USRR 191045Z 1912/2012 06007G12MPS 9999 SCT030 TEMPO 1912/1915 VRB17MPS 5000 -TSRA SQ FEW007 SCT020CB BECMG 1915/1916 03003G10MPS TEMPO 1918/1924 5000 BR FEW003
NOTAMshow/hide NOTAM
AWOS   TABLE

Информация о ВПП

ВПП Длина ВПП (м.) Покрытие Курс ВПП Частота ILS
072780Асфальтобетон73110.5
252780Асфальтобетон253109.1

Диспетчерские позиции

Позывной Наименование органа УВД Частота
USRR_TWRСургут-Вышка120.800
USRR_APPСургут-Подход129.300
USRR_R_APPСургут - Круг120.300



Спутниковое изображение